FW9956 Weather Reports


Display with metric or nautical units.
time (UTC)temp
F
wind
direction
speed
MPH
gust
MPH
rain 1hr
in
rain 24hr
in
rain mn
in
humidity
%
barometer
mb
20260506073125 60 216 1.0 2.0 0.00 0.00 0.00 77 1008.0
20260506072621 60 192 0.0 1.0 0.00 0.00 0.00 77 1007.9
20260506072119 61 195 1.0 2.0 0.00 0.00 0.00 77 1008.0
20260506071617 61 102 1.0 2.0 0.00 0.00 0.00 77 1008.0
20260506071114 61 183 1.0 1.0 0.00 0.00 0.00 77 1008.2
20260506070611 61 191 2.0 2.0 0.00 0.00 0.00 77 1008.2
20260506070108 61 115 0.0 1.0 0.00 0.00 0.00 77 1008.3
20260506062045 62 188 0.0 1.0 0.00 0.00 0.00 77 1008.0
20260506061541 62 194 0.0 1.0 0.00 0.00 0.00 78 1008.0
20260506061039 62 139 1.0 1.0 0.00 0.00 0.00 78 1008.0
20260506060537 62 141 0.0 1.0 0.00 0.00 0.00 77 1008.2
20260506051006 63 199 1.0 2.0 0.00 0.00 0.00 79 1008.0
20260506050504 64 159 1.0 2.0 0.00 0.00 0.00 79 1008.0
20260506044954 64 208 1.0 2.0 0.00 0.00 0.00 79 1007.9
20260506044452 64 133 0.0 1.0 0.00 0.00 0.00 79 1008.0
20260506043948 64 205 2.0 2.0 0.00 0.00 0.00 78 1008.1
20260506043446 65 210 0.0 1.0 0.00 0.00 0.00 78 1008.1
20260506042943 65 191 1.0 2.0 0.00 0.00 0.00 78 1008.3
20260506042443 65 193 1.0 1.0 0.00 0.00 0.00 78 1008.0
20260506041940 65 191 2.0 2.0 0.00 0.00 0.00 78 1007.8
20260506041438 65 198 2.0 2.0 0.00 0.00 0.00 78 1007.8
20260506040935 65 208 2.0 2.0 0.00 0.00 0.00 78 1007.8
20260506040433 66 229 3.0 5.0 0.00 0.00 0.00 78 1007.9
20260506035929 66 217 2.0 2.0 0.00 0.00 0.00 78 1007.6
20260506035426 66 329 2.0 7.0 0.00 0.00 0.00 78 1007.3
20260506034923 66 190 3.0 5.0 0.00 0.00 0.00 78 1007.4
20260506034420 66 183 3.0 6.0 0.00 0.00 0.00 77 1007.1
20260506033917 67 160 0.0 1.0 0.00 0.00 0.00 77 1007.4
20260506033414 67 200 0.0 0.0 0.00 0.00 0.00 77 1007.0
20260506032911 68 191 1.0 2.0 0.00 0.00 0.00 77 1007.0
20260506032408 69 188 1.0 1.0 0.00 0.00 0.00 77 1006.8
20260506031905 69 201 1.0 2.0 0.00 0.00 0.00 77 1006.9
20260506031402 69 189 0.0 1.0 0.00 0.00 0.00 76 1006.7
20260506030859 69 48 2.0 2.0 0.00 0.00 0.00 76 1006.6
20260506030358 70 125 1.0 1.0 0.00 0.00 0.00 76 1006.3
20260506025854 70 175 0.0 0.0 0.00 0.00 0.00 75 1006.6
20260506025351 70 186 1.0 1.0 0.00 0.00 0.00 75 1006.4
20260506024848 70 126 1.0 2.0 0.00 0.00 0.00 75 1006.5
20260506024344 70 186 2.0 5.0 0.00 0.00 0.00 75 1006.1
20260506023840 71 144 0.0 0.0 0.00 0.00 0.00 75 1006.3
20260506023338 71 187 2.0 2.0 0.00 0.00 0.00 74 1006.0
20260506022834 71 80 1.0 2.0 0.00 0.00 0.00 74 1005.5
20260506022332 71 189 0.0 0.0 0.00 0.00 0.00 73 1005.6
20260506021830 71 197 0.0 0.0 0.00 0.00 0.00 73 1005.6
20260506021327 71 195 0.0 1.0 0.00 0.00 0.00 73 1005.5
20260506020823 71 203 2.0 2.0 0.00 0.00 0.00 73 1005.6
20260506020321 71 223 1.0 1.0 0.00 0.00 0.00 72 1005.0
20260506015818 72 197 0.0 0.0 0.00 0.00 0.00 73 1004.9
20260506015316 72 188 1.0 1.0 0.00 0.00 0.00 72 1004.5
20260506014812 72 185 1.0 2.0 0.00 0.00 0.00 72 1004.7
20260506014309 72 190 0.0 0.0 0.00 0.00 0.00 72 1004.9
20260506013806 73 166 0.0 1.0 0.00 0.00 0.00 72 1004.7
20260506013303 73 200 0.0 1.0 0.00 0.00 0.00 72 1004.5
20260506012800 73 198 2.0 3.0 0.00 0.00 0.00 71 1004.4
20260506012256 73 175 1.0 1.0 0.00 0.00 0.00 70 1004.7
20260506011753 73 176 0.0 0.0 0.00 0.00 0.00 70 1004.3
20260506011249 73 189 0.0 1.0 0.00 0.00 0.00 70 1004.3
20260506010748 74 186 0.0 0.0 0.00 0.00 0.00 70 1004.7
20260506010245 74 216 2.0 3.0 0.00 0.00 0.00 70 1004.6
20260506005743 74 193 0.0 0.0 0.00 0.00 0.00 70 1004.5
20260506005239 75 237 2.0 3.0 0.00 0.00 0.00 70 1004.3
20260506004735 75 205 0.0 1.0 0.00 0.00 0.00 69 1004.0
20260506004233 75 156 0.0 1.0 0.00 0.00 0.00 68 1003.9
20260506003729 75 61 1.0 2.0 0.00 0.00 0.00 67 1004.1
20260506003226 75 196 0.0 1.0 0.00 0.00 0.00 67 1003.9
20260506002721 76 211 2.0 3.0 0.00 0.00 0.00 67 1003.7
20260506002218 77 226 1.0 2.0 0.00 0.00 0.00 68 1003.4
20260506001714 77 279 1.0 2.0 0.00 0.00 0.00 67 1003.7
20260506001211 78 191 0.0 1.0 0.00 0.00 0.00 67 1003.5
20260506000708 78 193 2.0 3.0 0.00 0.00 0.00 66 1003.5
20260506000206 79 44 3.0 7.0 0.00 0.00 0.00 65 1003.2
20260505235703 80 188 2.0 3.0 0.00 0.00 0.00 65 1003.0
20260505235201 80 6 2.0 5.0 0.00 0.00 0.00 65 1002.9
20260505234657 80 105 1.0 1.0 0.00 0.00 0.00 65 1003.0
20260505234155 82 192 0.0 1.0 0.00 0.00 0.00 64 1002.8
20260505233651 82 182 0.0 1.0 0.00 0.00 0.00 63 1002.7
20260505233149 84 187 1.0 2.0 0.00 0.00 0.00 61 1002.7
20260505232646 85 185 2.0 3.0 0.00 0.00 0.00 57 1002.8
20260505232144 85 183 2.0 3.0 0.00 0.00 0.00 56 1002.5
20260505231640 86 198 1.0 2.0 0.00 0.00 0.00 55 1002.4
20260505231139 87 203 1.0 2.0 0.00 0.00 0.00 54 1002.5
20260505230636 87 197 1.0 1.0 0.00 0.00 0.00 53 1002.5
20260505230132 87 13 1.0 1.0 0.00 0.00 0.00 52 1002.4
20260505225629 88 207 0.0 0.0 0.00 0.00 0.00 51 1002.3
20260505225125 88 178 0.0 0.0 0.00 0.00 0.00 51 1002.0
20260505224622 88 190 1.0 2.0 0.00 0.00 0.00 50 1002.0
20260505224119 88 88 1.0 2.0 0.00 0.00 0.00 49 1001.9
20260505223616 89 187 2.0 3.0 0.00 0.00 0.00 49 1001.8
20260505223113 89 201 1.0 2.0 0.00 0.00 0.00 49 1001.9
20260505222609 91 75 2.0 3.0 0.00 0.00 0.00 48 1001.6
20260505222105 92 207 1.0 3.0 0.00 0.00 0.00 49 1001.4
20260505221602 93 221 3.0 5.0 0.00 0.00 0.00 48 1001.3
20260505221058 92 195 2.0 3.0 0.00 0.00 0.00 48 1001.1
20260505220556 92 204 0.0 1.0 0.00 0.00 0.00 50 1001.4
20260505220054 94 183 1.0 1.0 0.00 0.00 0.00 48 1001.4
20260505215552 93 201 0.0 1.0 0.00 0.00 0.00 49 1001.4
20260505215049 92 212 3.0 6.0 0.00 0.00 0.00 49 1001.5
20260505214547 93 193 1.0 1.0 0.00 0.00 0.00 48 1001.4
20260505214044 93 202 1.0 2.0 0.00 0.00 0.00 49 1001.7
20260505213542 93 244 3.0 6.0 0.00 0.00 0.00 49 1001.4
20260505213037 93 187 1.0 2.0 0.00 0.00 0.00 52 1001.5
20260505212534 93 189 0.0 1.0 0.00 0.00 0.00 50 1001.7
20260505212031 92 148 3.0 6.0 0.00 0.00 0.00 53 1001.5
20260505211529 92 189 2.0 2.0 0.00 0.00 0.00 53 1001.8
20260505211025 93 183 3.0 5.0 0.00 0.00 0.00 52 1001.8
20260505210522 92 208 3.0 6.0 0.00 0.00 0.00 52 1002.0
20260505210019 91 189 2.0 3.0 0.00 0.00 0.00 54 1001.9
20260505205517 92 208 4.0 7.0 0.00 0.00 0.00 53 1001.8
20260505205014 91 199 2.0 3.0 0.00 0.00 0.00 56 1001.9
20260505204512 91 230 0.0 1.0 0.00 0.00 0.00 55 1002.0
20260505204009 91 209 2.0 5.0 0.00 0.00 0.00 56 1002.3
20260505203505 90 199 1.0 2.0 0.00 0.00 0.00 57 1002.4
20260505203001 89 106 2.0 3.0 0.00 0.00 0.00 59 1002.5
20260505202458 90 173 5.0 7.0 0.00 0.00 0.00 58 1002.6
20260505201954 89 217 1.0 2.0 0.00 0.00 0.00 60 1002.6
20260505201451 88 199 3.0 5.0 0.00 0.00 0.00 59 1002.6
20260505200949 88 189 1.0 2.0 0.00 0.00 0.00 60 1002.6
20260505200447 89 219 3.0 3.0 0.00 0.00 0.00 58 1002.8
20260505195942 89 233 2.0 5.0 0.00 0.00 0.00 59 1002.6
20260505195439 88 187 6.0 7.0 0.00 0.00 0.00 59 1002.6
20260505194937 89 209 3.0 6.0 0.00 0.00 0.00 61 1002.8
20260505194434 88 164 4.0 8.0 0.00 0.00 0.00 60 1002.7
20260505193934 88 128 2.0 2.0 0.00 0.00 0.00 60 1002.8
20260505193432 88 153 4.0 6.0 0.00 0.00 0.00 61 1002.8
20260505192929 88 183 4.0 7.0 0.00 0.00 0.00 61 1002.6
20260505192427 88 139 5.0 7.0 0.00 0.00 0.00 61 1002.6
20260505191925 88 214 4.0 7.0 0.00 0.00 0.00 60 1002.8
20260505191423 87 267 7.0 10.0 0.00 0.00 0.00 61 1002.7
20260505190920 87 276 4.0 7.0 0.00 0.00 0.00 62 1002.7
20260505190415 86 210 2.0 2.0 0.00 0.00 0.00 62 1002.8
20260505185910 85 192 1.0 2.0 0.00 0.00 0.00 64 1002.9
20260505185408 86 115 2.0 5.0 0.00 0.00 0.00 64 1002.7
20260505184904 86 255 5.0 6.0 0.00 0.00 0.00 64 1002.9
20260505184401 86 207 3.0 3.0 0.00 0.00 0.00 64 1003.2
20260505183858 85 232 3.0 7.0 0.00 0.00 0.00 65 1003.0
20260505183355 85 224 3.0 6.0 0.00 0.00 0.00 65 1003.1
20260505182851 85 228 4.0 7.0 0.00 0.00 0.00 66 1003.1
20260505182348 85 234 4.0 7.0 0.00 0.00 0.00 65 1003.2
20260505181845 85 239 5.0 6.0 0.00 0.00 0.00 65 1003.3
20260505181342 84 220 2.0 3.0 0.00 0.00 0.00 65 1003.2
20260505180839 84 207 5.0 7.0 0.00 0.00 0.00 64 1003.2
20260505180335 84 207 2.0 5.0 0.00 0.00 0.00 66 1003.1
20260505175832 84 257 4.0 5.0 0.00 0.00 0.00 67 1003.2
20260505175328 84 206 5.0 7.0 0.00 0.00 0.00 66 1003.1
20260505174825 84 204 7.0 13.0 0.00 0.00 0.00 65 1003.0
20260505174322 84 214 4.0 6.0 0.00 0.00 0.00 65 1003.2
20260505173818 84 277 6.0 10.0 0.00 0.00 0.00 67 1003.3
20260505173315 84 217 4.0 6.0 0.00 0.00 0.00 68 1003.2
20260505172812 84 202 4.0 7.0 0.00 0.00 0.00 68 1003.3
20260505172309 84 191 4.0 8.0 0.00 0.00 0.00 68 1003.5
20260505171804 84 212 8.0 11.0 0.00 0.00 0.00 68 1003.2
20260505171301 84 153 5.0 7.0 0.00 0.00 0.00 67 1003.2
20260505170757 83 208 5.0 7.0 0.00 0.00 0.00 69 1003.2
20260505170255 83 199 5.0 9.0 0.00 0.00 0.00 69 1003.3
20260505165750 82 133 8.0 15.0 0.00 0.00 0.00 70 1003.1
20260505165246 82 119 4.0 6.0 0.00 0.00 0.00 70 1003.3
20260505164742 82 257 5.0 6.0 0.00 0.00 0.00 71 1003.4
20260505164239 82 164 5.0 8.0 0.00 0.00 0.00 71 1003.3
20260505163737 82 241 3.0 5.0 0.00 0.00 0.00 71 1003.3
20260505163236 81 260 5.0 8.0 0.00 0.00 0.00 72 1003.1
20260505162732 81 61 3.0 7.0 0.00 0.00 0.00 72 1003.3
20260505162229 82 109 3.0 5.0 0.00 0.00 0.00 73 1003.3
20260505161726 81 108 1.0 3.0 0.00 0.00 0.00 73 1003.2
20260505161224 80 138 4.0 6.0 0.00 0.00 0.00 74 1003.2
20260505160721 80 170 5.0 9.0 0.00 0.00 0.00 74 1002.9
20260505160219 80 149 3.0 5.0 0.00 0.00 0.00 75 1003.3
20260505153158 79 140 5.0 7.0 0.00 0.00 0.00 76 1003.0
20260505152655 78 169 2.0 5.0 0.00 0.00 0.00 77 1002.9
20260505152150 78 173 4.0 7.0 0.00 0.00 0.00 77 1003.1
20260505151646 78 141 3.0 3.0 0.00 0.00 0.00 78 1003.0
20260505151143 77 216 7.0 9.0 0.00 0.00 0.00 78 1003.1
20260505150639 77 214 1.0 2.0 0.00 0.00 0.00 79 1003.2
20260505150136 77 103 6.0 9.0 0.00 0.00 0.00 80 1003.2
20260505140605 74 188 2.0 3.0 0.00 0.00 0.00 84 1002.8
20260505125019 71 166 5.0 8.0 0.00 0.00 0.00 87 1002.6
20260505124515 71 163 6.0 8.0 0.00 0.00 0.00 88 1002.6
20260505124012 71 358 2.0 3.0 0.00 0.00 0.00 88 1002.5
20260505123508 71 160 3.0 3.0 0.00 0.00 0.00 88 1002.5
20260505123004 71 162 6.0 9.0 0.00 0.00 0.00 88 1002.7
20260505122502 71 212 3.0 5.0 0.00 0.00 0.00 88 1002.6
20260505121958 71 167 1.0 1.0 0.00 0.00 0.00 88 1002.2
20260505121455 71 191 2.0 2.0 0.00 0.00 0.00 88 1002.2
20260505120951 71 212 3.0 3.0 0.00 0.00 0.00 88 1001.9
20260505120448 71 140 5.0 6.0 0.00 0.00 0.00 88 1002.0
20260505115947 71 199 2.0 3.0 0.00 0.00 0.00 88 1002.3
20260505115443 71 184 3.0 5.0 0.00 0.00 0.00 88 1002.4
20260505114941 71 187 3.0 5.0 0.00 0.00 0.00 88 1002.0
20260505114437 71 193 3.0 3.0 0.00 0.00 0.00 88 1002.2
20260505113934 71 204 3.0 3.0 0.00 0.00 0.00 88 1001.9
20260505113430 71 103 1.0 2.0 0.00 0.00 0.00 88 1002.0
20260505112926 71 204 3.0 10.0 0.00 0.00 0.00 87 1002.2
20260505112424 71 197 1.0 1.0 0.00 0.00 0.00 87 1002.2
20260505111920 71 203 3.0 3.0 0.00 0.00 0.00 87 1001.9
20260505111415 71 72 3.0 6.0 0.00 0.00 0.00 87 1001.9
20260505110912 71 172 2.0 3.0 0.00 0.00 0.00 87 1001.7
20260505110409 71 237 2.0 3.0 0.00 0.00 0.00 87 1001.8
20260505101839 71 157 5.0 6.0 0.00 0.00 0.00 87 1001.8
20260505101334 71 149 3.0 3.0 0.00 0.00 0.00 87 1002.0
20260505100830 71 58 3.0 5.0 0.00 0.00 0.00 87 1001.7
20260505100327 71 194 2.0 3.0 0.00 0.00 0.00 87 1001.8
20260505095822 71 197 4.0 6.0 0.00 0.00 0.00 86 1002.0
20260505095320 72 207 5.0 8.0 0.00 0.00 0.00 86 1002.2
20260505094816 72 0 3.0 3.0 0.00 0.00 0.00 86 1001.9
20260505094313 72 188 5.0 6.0 0.00 0.00 0.00 86 1001.9
20260505093808 72 192 3.0 5.0 0.00 0.00 0.00 86 1002.0
20260505093307 72 132 4.0 6.0 0.00 0.00 0.00 86 1001.9
20260505092803 72 213 3.0 7.0 0.00 0.00 0.00 85 1001.9
20260505092304 72 197 2.0 5.0 0.00 0.00 0.00 85 1002.3
20260505091758 72 86 6.0 10.0 0.00 0.00 0.00 85 1002.2
20260505091256 72 175 3.0 7.0 0.00 0.00 0.00 85 1002.5
20260505090754 72 277 5.0 7.0 0.00 0.00 0.00 85 1002.0
20260505090252 72 131 3.0 5.0 0.00 0.00 0.00 85 1002.6
20260505085749 72 142 4.0 6.0 0.00 0.00 0.00 85 1002.7
20260505085247 72 213 8.0 10.0 0.00 0.00 0.00 85 1002.5
20260505084744 72 126 7.0 11.0 0.00 0.00 0.00 85 1002.4
20260505084243 72 238 3.0 3.0 0.00 0.00 0.00 85 1002.4
20260505083739 72 214 5.0 7.0 0.00 0.00 0.00 85 1002.4
20260505083236 72 158 2.0 3.0 0.00 0.00 0.00 84 1002.6
20260505082732 72 154 4.0 5.0 0.00 0.00 0.00 84 1002.5
20260505082230 72 113 3.0 3.0 0.00 0.00 0.00 84 1002.6
20260505081725 72 237 2.0 3.0 0.00 0.00 0.00 84 1002.5
20260505081223 72 208 4.0 6.0 0.00 0.00 0.00 84 1002.4
20260505080720 72 152 4.0 6.0 0.00 0.00 0.00 84 1002.6
20260505080215 73 196 2.0 2.0 0.00 0.00 0.00 83 1002.8